Volver al catálogo

COSMOS 2251 DEB

ActivoLEO
NORAD 34412·DEBRIS·🇷🇺 Russia

Lanzado Jun 16, 1993 desde Plesetsk Cosmodrome

Loading…

Próximos Pases (próximas 24 horas)

TLE

ActualizadoSource: Space-Track

Época: Sep 14, 2026, 09:58 UTC

1 34412U 93036RD  26257.41536441  .00001346  00000-0  29033-3 0  9999
2 34412  73.9467 165.0183 0185780 198.9351 160.4841 14.49271028916425

Sigue COSMOS 2251 DEB en tiempo real con AllMySat

Download on the App Store